Pagrindinis puslapis
METAR-TAF:

METAR-TAF

Oro uostai :

Dumas, Teksasas, Jungtinės Amerikos Valstijos

platuma: 35-51-28N, ilguma: 102-00-47W, Aukštis: 1129 m

Dabartinis oras

Ataskaita buvo paskelbta 23 minutes, ne 11:55 UTC
Vėjas 7 kt iš Pietryčių
Temperatūra 8°C
Drėgmė 66%
Slėgis 1020 hPa
Matomumas: 16.1 km
Giedras dangus

METAR: KDUX 231155Z AUTO 14007KT 10SM CLR 08/02 A3012 RMK AO2 T00770021 10130 20077

Laikas: 07:18 (12:18 UTC)


TAF: trūkstamas

Orai ataskaitas ir orų prognozės (METAR, TAF).

turimą stotys yra geltonos ir raudonos taškus žemėlapyje.

Perkelti pele per norėdami pamatyti stoties vardą.

Tada spustelėkite, norėdami matyti oro stebėjimo ir prognozės.

Norėdami pakeisti žemėlapį: spustelėkite ant žalios mygtukų su juodo kryžiaus žemyn,; žalią mygtuką su brūkšneliu, jei norite nutolinti; arba žalių rodyklių gretimoms žemėlapius.


METAR-TAF: